Location: Oro Verde
(31.8170°S, 60.5170°W)
Time: 20:05:50
(UTC-03:00)

ISS - Visible Passes

Search period start: 19 January 2019 00:00
Search period end: 29 January 2019 00:00
Orbit: 404 x 410 km, 51.6° (Epoch: 20 January)

Date Brightness Start Highest point End Pass type
(mag) Time Alt. Az. Time Alt. Az. Time Alt. Az.
24 Jan -0.8 05:13:45 10° NE 05:14:03 10° NE 05:14:21 10° ENE visible
26 Jan -2.3 05:05:38 18° N 05:07:29 30° NE 05:10:28 10° ESE visible
27 Jan -1.2 04:16:33 14° ENE 04:16:33 14° ENE 04:18:07 10° E visible
27 Jan -2.8 05:49:23 10° WNW 05:52:30 36° SW 05:55:38 10° SSE visible
28 Jan -3.9 05:00:05 44° NW 05:01:01 80° SW 05:04:22 10° SE visible
